[[{"header":{"parameterUnit":"m.s-1","parameterCategory":1,"la1":30.2991,"la2":30.254,"lo1":-89.0895,"lo2":-89.0444,"dy":0.0017,"dx":0.0017,"nx":28,"ny":28,"refTime":"2024-08-15T21:00:00:Z","depth":0,"parameterNumber":2,"parameterNumberName":"U-component_of_WINDS"},"data":[0,0,0,0,0,0,0,0,0,0,0,0,0,0,0,0,0,0,0,0,0,0,0,0,0,0,0,0,0,0,0,0,0,0,0,0,0,0,0,0,0,0,0,0,0,0,0,0,0,0,0,0,0,0,0,0,0,0,-0.4153,-0.4154,0,-0.4219,-0.422,-0.4221,-0.4265,-0.4265,-0.4265,-0.4265,-0.4333,-0.4334,-0.4336,0,0,0,0,0,0,0,0,0,0,0,0,0,-0.4067,-0.4069,-0.4153,-0.4154,-0.4155,-0.4219,-0.422,-0.4221,-0.4264,-0.4265,-0.4265,-0.4266,-0.4332,-0.4334,-0.4336,0,0,0,0,0,0,0,0,0,0,0,0,0,-0.4116,-0.4069,-0.4153,-0.4185,-0.4188,-0.4219,-0.422,-0.4221,-0.4264,-0.4265,-0.4265,-0.4266,-0.4332,-0.4334,-0.4336,-0.4341,0,0,-0.4343,-0.4344,0,0,0,0,0,0,0,0,-0.4113,-0.4119,-0.4179,-0.4182,-0.4186,-0.4234,-0.4214,-0.4261,-0.4264,-0.4235,-0.4265,-0.4266,-0.43,-0.4305,-0.4316,-0.4344,-0.4347,-0.4343,-0.4345,-0.4346,-0.4346,0,0,0,0,0,0,0,-0.411,-0.4117,-0.4179,-0.418,-0.4184,-0.4196,-0.4203,-0.4223,-0.4264,-0.4238,-0.4241,-0.4248,-0.4302,-0.4314,-0.4318,-0.4348,-0.4343,-0.4345,-0.4347,-0.4348,-0.4386,-0.4386,0,0,0,0,0,0,-0.4101,-0.4113,-0.4177,-0.4181,-0.415,-0.4197,-0.4205,-0.4218,-0.4264,-0.4271,-0.4248,-0.425,-0.431,-0.4315,-0.432,-0.4331,-0.4346,-0.4348,-0.4349,-0.4387,-0.4386,-0.4386,0,0,0,0,0,0,-0.4099,-0.4107,-0.4175,-0.4148,-0.4158,-0.4198,-0.4212,-0.4219,-0.4231,-0.4272,-0.4279,-0.4253,-0.431,-0.4317,-0.4336,-0.4334,-0.4349,-0.4351,-0.4387,-0.4387,-0.4386,-0.4351,0,0,0,0,0,0,-0.4097,-0.4106,-0.4107,-0.4148,-0.4159,-0.4189,-0.4212,-0.422,-0.4235,-0.4239,-0.4278,-0.4285,-0.4311,-0.4333,-0.4338,-0.4337,-0.4353,-0.4388,-0.4387,-0.4386,-0.4352,-0.4349,-0.4346,0,0,0,0,0,-0.4093,-0.4094,-0.4107,-0.4115,-0.4162,-0.4189,-0.4195,-0.4225,-0.4235,-0.4237,-0.4264,-0.4284,-0.4333,-0.4334,-0.4341,-0.434,-0.4388,-0.4387,-0.4386,-0.4354,-0.435,-0.4346,0,0,0,0,0,0,-0.4052,-0.41,-0.4115,-0.4129,-0.4154,-0.4196,-0.42,-0.4219,-0.4242,-0.4245,-0.4281,-0.429,-0.4305,-0.4325,-0.4325,-0.4349,-0.4363,-0.4363,-0.4336,-0.4332,-0.4329,-0.4325,-0.4355,0,0,0,0,0,-0.4044,-0.4062,-0.4103,-0.4111,-0.4123,-0.4159,-0.4172,-0.4193,-0.4221,-0.4232,-0.4259,-0.4285,-0.4307,-0.4321,-0.4343,-0.4355,-0.4365,-0.4358,-0.4355,-0.4353,-0.4353,-0.4363,-0.4361,-0.4383,-0.4384,-0.4384,0,0,-0.4029,-0.4058,-0.4066,-0.4104,-0.4126,-0.4144,-0.4168,-0.4185,-0.4199,-0.4234,-0.4254,-0.4275,-0.4307,-0.4324,-0.4332,-0.434,-0.4349,-0.4352,-0.4349,-0.4351,-0.4362,-0.436,-0.4358,-0.4383,-0.4383,-0.4383,0,0,-0.4011,-0.4033,-0.4044,-0.4066,-0.4099,-0.4123,-0.4126,-0.4165,-0.418,-0.4201,-0.4229,-0.4246,-0.4281,-0.4304,-0.432,-0.4311,-0.4331,-0.4317,-0.4302,-0.4311,-0.431,-0.4308,-0.4307,-0.4305,-0.4317,-0.4317,-0.4317,0,-0.3987,-0.4015,-0.4047,-0.4063,-0.4079,-0.4112,-0.4124,-0.4144,-0.4182,-0.4193,-0.4202,-0.4249,-0.4273,-0.4296,-0.4294,-0.4305,-0.431,-0.4313,-0.4307,-0.4306,-0.4305,-0.4304,-0.4303,-0.4316,-0.4316,-0.4316,-0.4316,0,-0.3985,-0.4004,-0.4009,-0.4046,-0.4063,-0.4076,-0.4111,-0.4125,-0.4144,-0.4168,-0.419,-0.4219,-0.4249,-0.4256,-0.4275,-0.4282,-0.4286,-0.43,-0.4315,-0.4301,-0.4301,-0.43,-0.4313,-0.4314,-0.4314,-0.4315,0,0,-0.3942,-0.3998,-0.3999,-0.4017,-0.4057,-0.4073,-0.4089,-0.4118,-0.4129,-0.4155,-0.417,-0.4201,-0.4215,-0.4233,-0.4255,-0.4263,-0.4256,-0.4276,-0.4278,-0.4273,-0.4268,-0.4258,-0.4256,-0.427,-0.427,-0.427,-0.4266,0,-0.3931,-0.3961,-0.3991,-0.401,-0.4029,-0.4061,-0.4076,-0.4102,-0.4125,-0.4144,-0.4169,-0.4191,-0.4207,-0.4219,-0.4228,-0.4255,-0.4256,-0.4256,-0.4285,-0.4286,-0.4277,-0.4256,-0.4245,-0.424,-0.4266,-0.4266,-0.4266,0,-0.3921,-0.3947,-0.3968,-0.4008,-0.4017,-0.4029,-0.4059,-0.4077,-0.4108,-0.4124,-0.4145,-0.4169,-0.4188,-0.4201,-0.4229,-0.4228,-0.4242,-0.4257,-0.4257,-0.4262,-0.4275,-0.4261,-0.4239,-0.4238,-0.4265,-0.4265,-0.4265,0,-0.3889,-0.3929,-0.3947,-0.3962,-0.4008,-0.4016,-0.4036,-0.4068,-0.4084,-0.411,-0.4121,-0.4149,-0.4165,-0.4186,-0.4217,-0.4223,-0.4243,-0.4257,-0.4257,-0.4257,-0.4261,-0.426,-0.4241,-0.4267,-0.4267,-0.4267,-0.4267,0,-0.3874,-0.3887,-0.3934,-0.3945,-0.3961,-0.3995,-0.401,-0.4032,-0.4061,-0.4078,-0.4107,-0.4123,-0.4162,-0.4183,-0.4207,-0.4227,-0.4234,-0.4248,-0.4255,-0.4246,-0.4245,-0.4256,-0.4258,-0.4267,-0.4267,-0.4267,-0.4267,0,-0.3841,-0.3874,-0.3896,-0.3939,-0.395,-0.396,-0.3996,-0.4009,-0.4034,-0.4056,-0.4063,-0.4101,-0.4127,-0.416,-0.4196,-0.4213,-0.4231,-0.424,-0.422,-0.4224,-0.4223,-0.4223,-0.4212,-0.4213,-0.4237,-0.4237,-0.4237,0,-0.383,-0.3841,-0.3885,-0.3898,-0.3918,-0.3939,-0.3956,-0.3991,-0.4007,-0.4045,-0.4053,-0.4082,-0.4106,-0.4146,-0.4178,-0.4206,-0.4217,-0.4211,-0.4221,-0.4213,-0.4219,-0.4218,-0.422,-0.4209,-0.4208,-0.4208,-0.4207,0,-0.3807,-0.3823,-0.3846,-0.3876,-0.3895,-0.392,-0.3946,-0.3955,-0.3996,-0.4013,-0.404,-0.4059,-0.4097,-0.4125,-0.4157,-0.4178,-0.42,-0.4204,-0.4206,-0.4198,-0.4186,-0.4194,-0.4215,-0.4204,-0.4205,-0.4205,-0.4205,-0.4205,-0.3786,-0.3797,-0.3831,-0.3856,-0.388,-0.3904,-0.3918,-0.3945,-0.3969,-0.4002,-0.4021,-0.4048,-0.408,-0.4126,-0.4147,-0.4169,-0.4177,-0.4179,-0.418,-0.418,-0.4178,-0.4182,-0.4175,-0.4175,-0.4175,-0.4175,-0.4175,0,-0.3766,-0.3789,-0.3812,-0.3848,-0.3868,-0.3887,-0.3917,-0.3933,-0.3956,-0.3985,-0.4009,-0.4041,-0.4068,-0.4103,-0.4133,-0.4144,-0.4155,-0.4151,-0.4151,-0.4156,-0.4168,-0.4164,-0.4142,-0.4142,-0.4142,-0.4142,-0.4142,-0.4142,-0.3758,-0.3779,-0.3799,-0.3832,-0.3856,-0.3882,-0.3898,-0.3921,-0.3944,-0.3978,-0.4002,-0.4024,-0.4055,-0.4088,-0.4115,-0.4124,-0.4135,-0.4128,-0.4141,-0.4152,-0.4155,-0.4158,-0.4154,-0.413,-0.413,-0.4127,-0.4126,-0.4126]},{"header":{"parameterUnit":"m.s-1","parameterCategory":1,"la1":30.2991,"la2":30.254,"lo1":-89.0895,"lo2":-89.0444,"dy":0.0017,"dx":0.0017,"nx":28,"ny":28,"refTime":"2024-08-15T21:00:00:Z","depth":0,"parameterNumber":3,"parameterNumberName":"V-component_of_WINDS"},"data":[0,0,0,0,0,0,0,0,0,0,0,0,0,0,0,0,0,0,0,0,0,0,0,0,0,0,0,0,0,0,0,0,0,0,0,0,0,0,0,0,0,0,0,0,0,0,0,0,0,0,0,0,0,0,0,0,0,0,0.3236,0.3237,0,0.3371,0.3373,0.3374,0.3429,0.3429,0.3428,0.3428,0.3564,0.3568,0.3572,0,0,0,0,0,0,0,0,0,0,0,0,0,0.3023,0.3027,0.3236,0.3238,0.3239,0.3371,0.3373,0.3375,0.3429,0.3429,0.3428,0.3428,0.3563,0.3567,0.3572,0,0,0,0,0,0,0,0,0,0,0,0,0,0.3133,0.3028,0.3236,0.3282,0.3288,0.337,0.3373,0.3375,0.3429,0.3429,0.3428,0.3428,0.3561,0.3567,0.3573,0.3618,0,0,0.359,0.3593,0,0,0,0,0,0,0,0,0.3126,0.314,0.3274,0.3279,0.3286,0.3383,0.3348,0.3456,0.3429,0.3375,0.3428,0.3427,0.3504,0.3514,0.3541,0.3624,0.363,0.3591,0.3594,0.3597,0.3599,0,0,0,0,0,0,0,0.3119,0.3135,0.3289,0.3276,0.3283,0.3296,0.3311,0.3368,0.344,0.338,0.3384,0.34,0.3507,0.3535,0.3544,0.3632,0.3591,0.3596,0.36,0.3602,0.376,0.3761,0,0,0,0,0,0,0.3104,0.3128,0.3285,0.3293,0.3203,0.33,0.3317,0.3352,0.344,0.3453,0.34,0.3402,0.3525,0.3537,0.3549,0.3609,0.3597,0.3602,0.3606,0.3759,0.376,0.3761,0,0,0,0,0,0,0.3099,0.3117,0.328,0.3212,0.3234,0.3304,0.3343,0.3355,0.3383,0.3455,0.3468,0.3415,0.3525,0.3541,0.3601,0.3614,0.3605,0.361,0.3758,0.376,0.376,0.3727,0,0,0,0,0,0,0.3093,0.3115,0.3133,0.3212,0.3237,0.3329,0.3344,0.3358,0.3393,0.3397,0.3473,0.3485,0.3526,0.3592,0.3606,0.3622,0.3615,0.3758,0.3759,0.376,0.3727,0.3727,0.3726,0,0,0,0,0,0.3085,0.3118,0.3134,0.3153,0.3262,0.333,0.3344,0.3391,0.3394,0.3413,0.3459,0.3483,0.361,0.3597,0.3614,0.3632,0.3757,0.3759,0.376,0.3727,0.3727,0.3726,0,0,0,0,0,0,0.3038,0.3129,0.3148,0.3208,0.3261,0.3339,0.3364,0.3389,0.3442,0.3443,0.3498,0.3515,0.357,0.3607,0.3591,0.368,0.3685,0.369,0.3655,0.3655,0.3654,0.3644,0.362,0,0,0,0,0,0.3035,0.3084,0.316,0.3206,0.3231,0.3293,0.3325,0.3356,0.3413,0.3436,0.3486,0.354,0.3592,0.3625,0.3677,0.3733,0.375,0.3753,0.3753,0.3752,0.3756,0.3788,0.379,0.3766,0.3766,0.3766,0,0,0.3029,0.3085,0.3112,0.3198,0.3243,0.3291,0.3312,0.3362,0.3398,0.3443,0.3503,0.3542,0.3605,0.3663,0.3691,0.3696,0.3766,0.3754,0.3753,0.3757,0.379,0.3792,0.3794,0.3767,0.3767,0.3767,0,0,0.3042,0.3089,0.3133,0.3177,0.3245,0.3286,0.3296,0.3371,0.3399,0.346,0.3495,0.3539,0.3627,0.3672,0.3705,0.3736,0.3759,0.3751,0.3749,0.378,0.3782,0.3784,0.3795,0.3798,0.3754,0.3754,0.3754,0,0.3026,0.3101,0.3151,0.3201,0.3237,0.3281,0.3325,0.3365,0.3446,0.347,0.3474,0.3587,0.3633,0.3702,0.3709,0.3735,0.3748,0.3743,0.3777,0.378,0.3783,0.3794,0.3798,0.3753,0.3753,0.3753,0.3753,0,0.3078,0.3129,0.3156,0.3234,0.3274,0.332,0.3377,0.3411,0.3439,0.3479,0.3541,0.3597,0.3662,0.368,0.3708,0.3753,0.3754,0.3767,0.3773,0.3783,0.3794,0.3799,0.3751,0.3751,0.3752,0.3752,0,0,0.3066,0.3172,0.3181,0.3217,0.3295,0.3336,0.3383,0.3447,0.3476,0.353,0.3571,0.3645,0.3658,0.3697,0.373,0.3757,0.3778,0.3766,0.3769,0.3767,0.3831,0.3821,0.3825,0.3794,0.3795,0.3795,0.3826,0,0.309,0.3179,0.3226,0.3294,0.3342,0.3384,0.3426,0.3478,0.3517,0.3563,0.3606,0.3658,0.3671,0.3694,0.3723,0.3769,0.3791,0.3767,0.3832,0.3834,0.3816,0.3832,0.3821,0.3847,0.3831,0.3832,0.3832,0,0.3131,0.3185,0.3259,0.3332,0.3354,0.3391,0.3453,0.3497,0.3557,0.3583,0.3626,0.3659,0.3711,0.3712,0.3784,0.3767,0.3796,0.3823,0.3825,0.3833,0.3834,0.384,0.3857,0.3861,0.384,0.3839,0.3839,0,0.3115,0.3207,0.3263,0.3293,0.3379,0.3404,0.3441,0.3501,0.3536,0.359,0.3614,0.3673,0.3705,0.375,0.3798,0.3795,0.3865,0.3871,0.3888,0.3887,0.3901,0.39,0.3923,0.3919,0.3919,0.3919,0.3919,0,0.3138,0.3181,0.3257,0.3292,0.3342,0.3395,0.3442,0.3482,0.3535,0.3578,0.3617,0.3656,0.3717,0.3763,0.3801,0.3854,0.3869,0.3891,0.3901,0.3888,0.3885,0.3908,0.3908,0.392,0.392,0.392,0.392,0,0.3129,0.3182,0.3246,0.3322,0.3343,0.3376,0.3442,0.3477,0.3517,0.3571,0.3587,0.3651,0.3708,0.3759,0.3835,0.386,0.3914,0.3926,0.3894,0.39,0.3914,0.3912,0.3954,0.3962,0.3952,0.3952,0.3952,0,0.314,0.3174,0.3255,0.3287,0.3323,0.3374,0.3411,0.3464,0.3501,0.3572,0.3598,0.3658,0.3708,0.3797,0.385,0.3908,0.3921,0.3932,0.393,0.3917,0.3922,0.392,0.3923,0.3931,0.3931,0.3931,0.3931,0,0.3154,0.3178,0.323,0.3291,0.3334,0.3385,0.3436,0.346,0.3523,0.3562,0.3621,0.366,0.3737,0.3796,0.386,0.3898,0.3925,0.3931,0.3938,0.3926,0.3906,0.3917,0.3893,0.393,0.393,0.393,0.393,0.393,0.3156,0.3188,0.3251,0.3307,0.3352,0.3399,0.3436,0.3482,0.3532,0.36,0.3628,0.3688,0.3747,0.3836,0.3873,0.392,0.3926,0.3936,0.3939,0.394,0.3938,0.3898,0.3932,0.3932,0.3932,0.3932,0.3932,0,0.3172,0.3214,0.3266,0.3337,0.3381,0.3404,0.3462,0.3497,0.355,0.3603,0.3653,0.372,0.3778,0.3835,0.3896,0.3922,0.3936,0.3937,0.3935,0.3943,0.393,0.3918,0.3924,0.3924,0.3924,0.3924,0.3924,0.3924,0.3186,0.3243,0.3275,0.3354,0.3396,0.3455,0.3487,0.3531,0.3574,0.3648,0.3696,0.3733,0.3789,0.3853,0.3907,0.3922,0.3943,0.3939,0.3958,0.3944,0.3944,0.3945,0.3934,0.3943,0.3943,0.3968,0.3969,0.3969]}]]